Location: Krakow
(50.0830°N, 19.9170°E)
Time: 05:30:52
(UTC+01:00)

Vanguard 2 - Pass Details

Date: 15 December 2023
Orbit: 553 x 2919 km, 32.9° (Epoch: 24 February)

Event Time Altitude Azimuth Distance (km) Brightness Sun altitude
Rises 16:49:07 0° 214° (SSW) 5,722 13.0 -10.6°
Reaches altitude 10° 16:53:15 10° 204° (SSW) 5,021 12.4 -11.3°
Maximum altitude 17:05:32 30° 151° (SSE) 4,176 11.2 -13.1°
Drops below altitude 10° 17:19:22 10° 100° (E) 5,710 11.4 -15.2°
Enters shadow 17:19:26 10° 100° (E) 5,719 11.4 -15.2°
